Time,TemperatureF,DewpointF,PressureIn,WindDirection,WindDirectionDegrees,WindSpeedMPH,WindSpeedGustMPH,Humidity,HourlyPrecipIn,Conditions,Clouds,dailyrainin,SoftwareType,DateUTC
2013-08-23 00:02:00,73.0,49.0,-100.00,South,176,8.0,10.0,42,0.00,,,0.00,,2013-08-23 06:02:00,
2013-08-23 00:21:00,73.0,48.0,-100.00,South,178,8.0,11.0,41,0.00,,,0.00,,2013-08-23 06:21:00,
2013-08-23 00:32:00,73.0,48.0,-100.00,South,178,8.0,11.0,41,0.00,,,0.00,,2013-08-23 06:32:00,
2013-08-23 00:52:00,73.0,48.0,-100.00,South,172,7.0,10.0,41,0.00,,,0.00,,2013-08-23 06:52:00,
2013-08-23 01:01:00,73.0,48.0,-100.00,South,172,7.0,10.0,41,0.00,,,0.00,,2013-08-23 07:01:00,
2013-08-23 01:22:00,72.0,48.0,-100.00,SSW,193,9.0,13.0,42,0.00,,,0.00,,2013-08-23 07:22:00,
2013-08-23 01:32:00,72.0,48.0,-100.00,SSW,193,9.0,13.0,42,0.00,,,0.00,,2013-08-23 07:32:00,
2013-08-23 01:52:00,72.0,48.0,-100.00,South,181,10.0,13.0,42,0.00,,,0.00,,2013-08-23 07:52:00,
2013-08-23 02:02:00,72.0,48.0,-100.00,South,181,10.0,13.0,42,0.00,,,0.00,,2013-08-23 08:02:00,
2013-08-23 02:52:00,76.0,46.0,-100.00,South,179,12.0,15.0,34,0.00,,,0.00,,2013-08-23 08:52:00,
2013-08-23 03:01:00,76.0,46.0,-100.00,South,179,12.0,15.0,34,0.00,,,0.00,,2013-08-23 09:01:00,
2013-08-23 06:52:00,72.0,48.0,-100.00,SSW,192,5.0,7.0,43,0.00,,,0.00,,2013-08-23 12:52:00,
2013-08-23 07:02:00,72.0,48.0,-100.00,SSW,192,5.0,7.0,43,0.00,,,0.00,,2013-08-23 13:02:00,
2013-08-23 10:53:00,82.0,48.0,-100.00,South,191,10.0,13.0,30,0.00,,,0.00,,2013-08-23 16:53:00,
2013-08-23 11:03:00,82.0,48.0,-100.00,South,191,10.0,13.0,30,0.00,,,0.00,,2013-08-23 17:03:00,
2013-08-23 11:53:00,81.0,54.0,-100.00,North,357,4.0,9.0,39,0.00,,,0.00,,2013-08-23 17:53:00,
2013-08-23 12:02:00,81.0,54.0,-100.00,North,357,4.0,9.0,39,0.00,,,0.00,,2013-08-23 18:02:00,
2013-08-23 12:22:00,82.0,55.0,-100.00,NNE,16,7.0,10.0,40,0.00,,,0.00,,2013-08-23 18:22:00,
2013-08-23 12:32:00,82.0,55.0,-100.00,NNE,16,7.0,10.0,40,0.00,,,0.00,,2013-08-23 18:32:00,
2013-08-23 12:52:00,83.0,52.0,-100.00,North,350,6.0,9.0,34,0.00,,,0.00,,2013-08-23 18:52:00,
2013-08-23 13:01:00,83.0,52.0,-100.00,North,350,6.0,9.0,34,0.00,,,0.00,,2013-08-23 19:01:00,
2013-08-23 13:22:00,84.0,56.0,-100.00,NNW,330,6.0,9.0,38,0.00,,,0.00,,2013-08-23 19:22:00,
2013-08-23 13:32:00,84.0,56.0,-100.00,NNW,330,6.0,9.0,38,0.00,,,0.00,,2013-08-23 19:32:00,
2013-08-23 13:52:00,83.0,56.0,-100.00,NE,41,6.0,9.0,38,0.00,,,0.00,,2013-08-23 19:52:00,
2013-08-23 14:02:00,83.0,56.0,-100.00,NE,41,6.0,9.0,38,0.00,,,0.00,,2013-08-23 20:02:00,
2013-08-23 14:22:00,81.0,59.0,-100.00,NNW,343,4.0,6.0,46,0.03,,,0.01,,2013-08-23 20:22:00,
2013-08-23 14:32:00,81.0,59.0,-100.00,NNW,343,4.0,6.0,46,0.03,,,0.01,,2013-08-23 20:32:00,
2013-08-23 15:21:00,73.0,54.0,-100.00,SSE,161,9.0,10.0,52,0.07,,,0.07,,2013-08-23 21:21:00,
2013-08-23 15:34:00,73.0,54.0,-100.00,SSE,161,9.0,10.0,52,0.07,,,0.07,,2013-08-23 21:34:00,
2013-08-23 18:53:00,65.0,59.0,-100.00,SE,134,6.0,7.0,80,0.00,,,1.01,,2013-08-24 00:53:00,
2013-08-23 19:02:00,65.0,59.0,-100.00,SE,134,6.0,7.0,80,0.00,,,1.01,,2013-08-24 01:02:00,
2013-08-23 19:22:00,68.0,55.0,-100.00,SE,134,11.0,18.0,63,0.00,,,1.01,,2013-08-24 01:22:00,
2013-08-23 19:32:00,68.0,55.0,-100.00,SE,134,11.0,18.0,63,0.00,,,1.01,,2013-08-24 01:32:00,
2013-08-23 19:53:00,68.0,54.0,-100.00,SSE,158,8.0,10.0,61,0.00,,,1.01,,2013-08-24 01:53:00,
2013-08-23 20:02:00,68.0,54.0,-100.00,SSE,158,8.0,10.0,61,0.00,,,1.01,,2013-08-24 02:02:00,
2013-08-23 20:22:00,68.0,56.0,-100.00,West,272,3.0,4.0,65,0.00,,,1.01,,2013-08-24 02:22:00,
2013-08-23 20:32:00,68.0,56.0,-100.00,West,272,3.0,4.0,65,0.00,,,1.01,,2013-08-24 02:32:00,
2013-08-23 20:52:00,67.0,56.0,-100.00,SE,127,8.0,12.0,69,0.00,,,1.01,,2013-08-24 02:52:00,
2013-08-23 21:02:00,67.0,56.0,-100.00,SE,127,8.0,12.0,69,0.00,,,1.01,,2013-08-24 03:02:00,
2013-08-23 21:22:00,67.0,55.0,-100.00,SE,144,14.0,20.0,65,0.00,,,1.01,,2013-08-24 03:22:00,
2013-08-23 21:34:00,67.0,55.0,-100.00,SE,144,14.0,20.0,65,0.00,,,1.01,,2013-08-24 03:34:00,
2013-08-23 21:55:00,66.0,52.0,-100.00,SE,143,19.0,25.0,60,0.00,,,1.01,,2013-08-24 03:55:00,
2013-08-23 22:04:00,66.0,52.0,-100.00,SE,143,19.0,25.0,60,0.00,,,1.01,,2013-08-24 04:04:00,
2013-08-23 22:24:00,68.0,52.0,-100.00,SSW,212,7.0,10.0,57,0.00,,,1.01,,2013-08-24 04:24:00,
2013-08-23 22:34:00,68.0,52.0,-100.00,SSW,212,7.0,10.0,57,0.00,,,1.01,,2013-08-24 04:34:00,
2013-08-23 22:53:00,69.0,53.0,-100.00,South,186,10.0,13.0,57,0.00,,,1.01,,2013-08-24 04:53:00,
2013-08-23 23:03:00,69.0,53.0,-100.00,South,186,10.0,13.0,57,0.00,,,1.01,,2013-08-24 05:03:00,
2013-08-23 23:23:00,70.0,53.0,-100.00,South,189,11.0,14.0,56,0.00,,,1.01,,2013-08-24 05:23:00,
2013-08-23 23:33:00,70.0,53.0,-100.00,South,189,11.0,14.0,56,0.00,,,1.01,,2013-08-24 05:33:00,
2013-08-23 23:53:00,70.0,53.0,-100.00,South,181,10.0,15.0,55,0.00,,,1.01,,2013-08-24 05:53:00,